This demonstration page uses our WeatherBlox Daily Observations layout. Learn more.

Left ArrowRight Arrow

38.20091, -84.87328

Hourly Observations for July 29, 2020

Temp ( °F °C ) Dew Point ( °F °C ) Humidity (%) Winds ( mph kmh ) Pressure ( in mb ) Visibility ( mi km ) Precip ( " mm )
12:53 am 00:53 Cloudy 76 24.4 68 20 77 77 NNW 5 7 29.96 1015 10 16 0.00 0.00
1:53 am 01:53 Mostly Cloudy 74 23.3 68 20 82 82 Calm 29.96 1015 10 16 0.00 0.00
2:53 am 02:53 Cloudy 75 23.9 67 19.4 76 76 Calm 29.96 1014 10 16 0.00 0.00
3:53 am 03:53 Mostly Cloudy 74 23.3 67 19.4 79 79 NNW 3 6 29.95 1014 10 16 0.00 0.00
4:53 am 04:53 Mostly Clear 71 21.7 67 19.4 87 87 Calm 29.95 1014 10 16 0.00 0.00
5:53 am 05:53 Mostly Clear 71 21.7 66 18.9 84 84 Calm 29.95 1014 10 16 0.00 0.00
6:53 am 06:53 Sunny 70 21.1 66 18.9 87 87 Calm 29.97 1015 10 16 0.00 0.00
7:53 am 07:53 Sunny 74 23.3 68 20 82 82 Calm 29.97 1015 10 16 0.00 0.00
8:53 am 08:53 Mostly Cloudy 78 25.6 69 20.6 74 74 Calm 29.98 1015 10 16 0.00 0.00
9:53 am 09:53 Sunny 83 28.3 70 21.1 65 65 SSE 3 6 29.98 1015 10 16 0.00 0.00
10:53 am 10:53 Mostly Sunny 85 29.4 72 22.2 65 65 SSW 7 11 29.98 1015 10 16 0.00 0.00
11:53 am 11:53 Partly Cloudy 87 30.6 71 21.7 59 59 S 6 9 29.98 1015 10 16 0.00 0.00
12:53 pm 12:53 Partly Cloudy 90 32.2 70 21.1 52 52 SSW 8 13 29.97 1015 10 16 0.00 0.00
1:53 pm 13:53 Sunny 88 31.1 68 20 52 52 SW 7 11 29.95 1014 10 16 0.00 0.00
2:53 pm 14:53 Partly Cloudy 91 32.8 68 20 47 47 W 8 13 29.93 1014 10 16 0.00 0.00
3:53 pm 15:53 Sunny 92 33.3 66 18.9 43 43 SW 9 15 29.91 1013 10 16 0.00 0.00
4:53 pm 16:53 Sunny 91 32.8 67 19.4 45 45 W 5 7 29.89 1012 10 16 0.00 0.00
5:53 pm 17:53 Mostly Sunny 91 32.8 68 20 47 47 SW 8 13 29.89 1012 10 16 0.00 0.00
6:53 pm 18:53 Sunny 89 31.7 69 20.6 52 52 WNW 7 11 29.89 1012 10 16 0.00 0.00
7:53 pm 19:53 Sunny 88 31.1 70 21.1 55 55 W 6 9 29.90 1012 10 16 0.00 0.00
8:53 pm 20:53 Clear 83 28.3 71 21.7 67 67 WSW 3 6 29.91 1013 10 16 0.00 0.00
9:53 pm 21:53 Clear 82 27.8 71 21.7 69 69 SSW 3 6 29.92 1013 10 16 0.00 0.00
10:53 pm 22:53 Clear 79 26.1 71 21.7 77 77 W 3 6 29.93 1013 10 16 0.00 0.00
11:53 pm 23:53 Clear 78 25.6 72 22.2 82 82 SW 5 7 29.93 1014 10 16 0.00 0.00

Powered by AerisWeather